Location: Azul
(36.7830°S, 59.8500°W)
Time: 09:46:11
(UTC-03:00)

NOAA 19 - Pass Details

Date: 31 October 2021
Orbit: 840 x 861 km, 99.2° (Epoch: 07 December)

Event Time Altitude Azimuth Distance (km) Brightness Sun altitude
Rises 21:55:46 0° 185° (S) 3,474 9.1 -25.4°
Reaches altitude 10° 21:58:57 10° 203° (SSW) 2,528 8.5 -25.8°
Maximum altitude 22:02:29 18° 242° (WSW) 2,035 7.9 -26.3°
Drops below altitude 10° 22:06:01 10° 282° (WNW) 2,507 8.0 -26.8°
Sets 22:09:10 0° 301° (WNW) 3,431 8.5 -27.3°
